GFSCGP_925_temp_000.txt.gz
Temp
25 25 24 26 27 28 29 28 28 30 29 26 25 25 26 25 23 22 22 23 23 23 22 21 19 18 18 17 17 17 16 16 15 14 14 13 13 14 13 13 13 12 12 12
26 24 27 29 29 28 28 27 27 28 27 26 25 25 27 27 24 22 22 22 23 23 22 21 19 18 17 17 17 17 16 15 14 13 13 12 13 13 13 13 13 12 12 12
26 28 29 28 28 27 27 26 27 28 27 26 24 23 24 26 27 25 23 23 23 23 22 20 18 17 17 17 17 16 16 15 14 13 13 12 12 12 13 13 12 12 12 12
27 28 27 26 27 27 26 27 28 27 26 23 25 22 25 27 26 27 26 23 23 23 23 21 18 17 17 17 17 16 15 15 14 13 13 12 12 12 12 12 12 12 12 12
27 25 25 25 26 28 26 25 26 25 24 24 25 22 25 28 27 27 27 26 23 23 22 21 19 18 18 17 16 16 15 15 14 14 13 12 12 12 12 12 12 12 12 12
26 25 26 26 27 27 24 24 24 24 23 20 24 24 25 27 28 28 27 26 23 22 22 20 21 20 18 17 16 15 15 15 14 13 13 12 12 12 12 12 12 12 12 11
25 26 26 27 24 24 23 23 22 21 20 21 27 26 27 29 30 30 27 26 23 21 20 19 18 18 18 17 16 15 14 14 13 13 13 12 12 12 12 12 12 11 11 11
25 24 25 25 24 23 22 23 22 23 23 25 24 22 26 29 26 27 25 25 22 20 19 18 18 18 17 17 16 15 14 14 13 13 13 12 12 12 12 12 11 11 11 11
25 26 28 26 25 26 23 21 24 23 24 23 25 26 28 29 24 24 23 23 20 20 19 18 18 18 18 17 16 15 14 14 14 13 13 13 13 12 12 12 11 11 11 11
26 25 27 25 25 25 25 25 22 21 21 21 24 25 25 28 25 23 22 20 20 19 19 18 18 18 18 17 16 16 15 14 14 13 13 13 13 12 12 12 11 11 11 11
26 25 25 21 22 23 21 21 23 23 23 22 23 24 28 28 28 24 22 21 20 19 19 18 18 18 18 18 17 16 15 15 14 14 14 13 12 12 12 11 11 11 11 11
26 24 23 22 24 24 24 23 23 22 22 23 24 24 28 28 27 26 24 22 20 19 18 18 17 18 18 17 17 16 16 15 14 14 13 12 12 12 11 11 11 11 11 11
25 23 22 23 22 22 22 24 24 24 23 23 23 25 26 26 25 24 23 22 20 19 18 17 17 17 17 17 17 16 15 15 14 14 13 12 12 12 11 11 11 11 10 10
22 23 23 21 23 23 21 22 23 23 22 22 23 24 25 24 24 22 22 22 20 20 19 17 16 16 18 17 16 16 15 14 14 13 13 12 12 11 11 11 11 10 10 10
21 21 22 23 25 25 25 23 22 22 23 22 24 24 26 26 24 23 22 21 21 20 19 18 17 16 17 17 17 16 15 15 14 13 13 12 12 11 11 11 10 10 10 10
14 16 19 21 23 24 24 25 25 23 23 23 23 23 26 25 25 25 23 23 22 21 20 19 17 17 16 17 16 16 15 14 14 13 12 12 12 11 11 11 10 10 10 10
10 11 13 15 21 23 22 24 24 25 24 23 22 23 24 24 24 25 23 23 22 21 20 18 18 17 17 17 16 15 15 14 13 13 13 12 12 11 11 11 10 10 9 9
11 11 11 13 16 18 23 25 25 24 25 24 24 24 24 23 23 23 24 21 20 20 19 18 16 16 17 17 16 15 15 14 13 13 12 12 11 11 11 10 10 9 9 9
13 13 12 13 14 17 22 23 23 23 22 24 23 23 24 24 22 21 22 21 20 20 18 17 17 17 16 16 15 14 13 13 12 12 11 11 11 11 10 9 9 9 9 8
15 14 13 13 14 16 18 23 24 23 20 22 22 23 23 22 20 21 20 19 19 19 17 17 17 16 15 15 14 13 12 12 12 11 11 11 11 10 9 9 9 9 8 8
14 12 11 11 11 13 17 22 22 20 21 22 21 22 22 20 21 20 19 18 17 16 16 17 16 15 14 14 13 12 12 11 11 11 11 11 10 10 9 9 9 9 8 8
13 12 12 12 12 13 13 14 15 13 15 17 18 20 21 17 17 17 16 15 15 14 14 15 14 14 14 13 13 12 12 12 11 11 11 10 10 9 9 9 9 8 8 8
11 12 11 11 12 11 13 12 12 13 14 16 15 15 18 15 16 15 14 14 15 14 13 14 14 13 13 13 13 12 12 12 11 11 10 10 10 9 9 9 9 8 8 8
13 13 11 9 13 12 13 15 14 12 12 14 15 15 16 16 15 15 14 13 14 13 13 14 13 12 12 13 12 12 12 11 11 10 10 10 9 9 9 9 8 8 8 6
11 12 12 12 13 14 13 13 13 13 13 13 14 15 16 16 16 15 14 14 14 13 13 13 12 12 12 12 12 12 11 11 10 10 9 9 9 9 9 8 8 8 7 6
10 10 11 11 14 14 14 14 15 13 13 14 14 14 15 15 15 15 14 13 13 13 13 13 13 12 12 12 12 11 11 10 10 9 9 9 9 8 8 8 8 7 7 6

GFSCGP_925_temp_003.txt.gz
Temp
22 20 19 20 20 22 24 25 24 24 25 23 22 22 21 20 19 19 18 18 19 19 19 19 19 19 18 18 17 17 16 15 15 15 14 13 13 13 13 12 12 12 12 12
21 19 21 23 23 23 23 23 23 24 25 24 22 22 23 21 21 21 20 19 20 19 17 18 18 18 18 17 17 16 16 15 15 15 14 13 12 12 12 12 12 12 12 12
19 22 25 24 24 24 23 23 24 24 26 24 23 21 21 23 22 22 21 21 20 20 18 17 16 16 17 17 16 16 16 15 14 14 13 12 12 12 12 12 12 12 12 12
21 24 25 24 24 24 23 25 25 24 23 20 22 22 22 24 23 22 21 20 20 20 20 17 16 15 16 17 16 16 16 15 14 14 13 12 12 11 12 12 12 12 12 12
22 24 23 23 24 24 23 25 25 24 23 22 22 19 20 22 23 23 22 21 20 20 19 17 16 16 16 17 17 16 16 15 14 14 13 12 12 12 12 12 12 12 12 12
21 24 23 24 24 25 22 23 23 21 19 18 20 20 25 22 25 24 23 21 20 20 20 18 17 15 15 17 16 16 15 15 14 14 13 13 12 12 12 12 11 12 12 11
22 22 24 25 23 23 23 20 18 18 17 18 21 20 24 23 24 25 25 21 20 20 19 16 15 15 15 15 16 16 15 15 14 14 13 13 12 12 12 12 12 11 11 11
19 20 22 22 23 21 19 20 17 18 17 21 21 19 23 24 27 24 23 22 18 18 19 17 16 16 15 15 16 15 15 14 14 13 13 13 13 12 12 12 12 11 11 11
20 21 23 23 23 23 19 20 22 20 20 19 20 21 23 25 24 22 21 19 18 18 17 16 16 16 15 15 15 15 15 14 14 13 13 13 13 12 12 12 12 11 11 11
21 21 24 23 23 22 20 20 19 18 19 18 19 20 21 24 26 21 20 19 18 17 16 15 16 15 15 16 15 15 15 14 14 13 13 13 13 12 12 12 11 11 11 11
22 20 23 22 20 21 20 21 20 19 16 17 19 19 20 24 23 20 21 18 18 17 16 16 15 15 15 16 15 15 15 14 14 14 13 13 13 12 12 12 11 11 11 11
22 21 21 22 20 21 22 22 22 20 18 19 22 23 25 23 22 21 19 19 17 17 16 15 14 14 15 15 15 15 15 14 14 14 14 13 13 12 12 11 11 11 10 10
16 19 20 22 20 20 19 21 21 22 18 21 21 23 24 26 24 20 20 19 18 17 15 14 13 14 15 14 14 14 14 15 15 14 14 13 13 12 12 11 11 10 10 10
16 18 19 19 22 20 18 19 21 20 20 21 21 23 23 23 22 21 19 19 18 18 17 15 15 15 15 15 14 15 15 15 14 14 14 13 12 12 11 11 11 10 10 10
12 13 14 13 14 16 19 22 21 20 21 21 22 22 23 23 21 20 19 19 17 17 16 16 15 14 14 14 14 14 15 15 14 14 13 13 12 12 11 11 11 10 10 10
12 10 10 11 12 12 13 15 17 21 22 22 22 23 22 22 20 20 19 20 18 19 17 17 17 15 14 15 14 14 14 14 14 14 13 13 12 12 11 11 11 10 10 10
11 11 11 11 13 12 11 15 18 20 23 22 21 23 22 23 23 24 21 18 19 19 18 17 16 15 15 15 14 13 14 15 14 13 13 12 12 11 11 11 11 10 9 9
11 11 11 10 12 11 16 17 18 19 21 23 23 23 21 23 23 21 20 18 19 20 18 18 16 15 15 15 14 14 15 14 13 13 13 12 11 11 11 11 10 9 9 9
11 11 11 11 12 14 16 17 17 14 14 18 20 23 20 20 20 20 20 18 18 17 16 16 16 14 14 15 15 15 14 14 13 12 12 11 11 11 10 10 9 9 9 9
12 11 10 12 12 12 15 15 15 14 14 12 12 15 15 18 18 22 19 18 17 16 14 13 14 14 14 14 15 14 12 12 12 11 11 11 11 10 10 10 9 9 9 8
10 9 10 11 11 12 14 16 14 13 12 10 10 11 12 13 17 21 19 16 15 15 13 13 14 13 13 14 14 11 12 11 12 11 11 11 10 10 10 9 9 9 9 8
9 8 9 8 10 10 12 13 13 11 9 9 10 10 11 12 13 15 15 15 14 13 12 13 12 11 12 13 13 11 11 12 11 11 11 11 10 10 9 9 9 9 9 8
8 10 9 9 11 12 13 13 13 11 11 11 10 10 11 12 13 13 12 13 13 12 11 12 11 10 12 13 13 11 12 11 11 11 11 10 10 10 9 9 9 9 8 8
9 9 9 9 12 11 12 13 14 13 11 13 11 10 11 13 13 13 12 12 12 11 10 11 11 10 10 12 12 12 12 11 11 11 10 10 10 9 9 9 9 8 8 7
9 9 9 8 10 11 12 12 13 13 13 14 14 11 10 10 12 14 13 12 11 11 11 12 11 11 10 12 12 12 11 11 11 10 10 9 9 9 9 8 8 8 8 7
9 9 7 9 11 10 11 12 13 13 14 14 14 14 11 11 11 12 12 11 11 11 11 11 11 11 11 12 12 12 11 11 10 9 9 9 8 8 8 7 7 7 7 6

GFSCGP_925_temp_006.txt.gz
Temp
21 19 18 18 19 21 21 21 22 23 23 21 21 22 22 20 17 18 17 17 17 18 19 19 20 20 19 18 18 17 16 16 15 15 14 14 14 13 13 13 12 12 12 12
20 18 20 20 20 20 21 20 20 21 23 21 20 21 22 19 18 19 19 18 18 18 17 17 18 19 18 18 18 17 16 15 15 15 15 15 14 13 13 13 12 12 12 12
17 20 21 21 21 21 21 21 21 22 24 22 22 21 21 21 20 21 21 20 19 19 19 17 16 16 17 17 17 17 16 15 15 15 14 14 13 12 12 12 12 12 12 12
18 21 22 21 21 21 21 21 22 23 22 20 21 22 20 20 20 19 21 21 20 19 20 18 17 16 15 16 18 17 16 15 15 15 14 14 13 12 12 12 12 12 12 12
20 23 20 21 22 22 22 22 22 23 21 20 20 18 22 21 21 22 21 21 20 20 20 18 17 16 15 16 17 17 16 15 15 15 14 14 13 13 12 12 11 11 11 11
19 21 22 22 23 22 22 23 19 17 17 17 20 19 24 22 23 25 25 22 20 19 19 18 18 16 15 15 16 16 16 15 15 14 14 13 13 12 12 11 11 11 11 11
19 21 22 23 23 22 22 19 17 18 16 19 19 19 24 21 21 21 23 23 18 18 18 17 15 15 14 14 15 16 15 14 14 14 13 13 13 12 12 12 12 11 11 11
18 20 20 21 23 21 18 20 17 18 18 22 18 18 23 21 25 26 23 21 19 16 17 16 15 15 14 14 14 14 14 14 14 14 13 13 13 12 12 12 12 12 11 11
18 18 21 21 23 22 21 18 21 20 19 17 18 19 21 20 21 20 20 20 18 16 17 16 15 15 14 14 14 14 14 14 14 14 13 13 13 12 12 12 12 12 11 11
19 19 22 22 22 21 21 20 19 16 18 18 19 18 21 21 24 23 20 18 19 16 15 15 14 14 14 14 14 14 14 14 14 14 13 13 13 13 12 12 12 11 11 11
18 17 20 21 19 20 19 20 18 17 17 20 20 22 19 23 23 22 21 20 19 16 16 15 15 15 14 14 13 13 13 13 13 14 13 13 13 13 12 12 12 11 11 11
16 15 16 19 21 21 22 22 21 20 20 15 21 22 24 21 20 20 22 19 16 16 15 14 13 13 13 13 12 12 12 13 13 14 14 13 13 13 12 12 12 11 11 10
15 15 15 17 18 17 17 18 19 20 21 20 20 22 23 23 23 21 19 18 17 17 14 13 11 12 13 13 12 12 12 12 13 14 14 13 13 12 12 12 11 11 10 10
13 13 14 14 13 10 12 11 13 13 17 20 20 21 23 22 20 20 19 17 17 17 16 14 13 13 14 13 13 13 12 13 14 14 13 13 13 12 12 12 11 11 10 10
13 11 12 12 13 13 12 12 11 11 11 11 14 17 23 23 23 23 21 18 16 16 15 14 14 13 13 13 13 13 13 13 13 13 13 13 13 12 12 12 11 11 10 10
10 11 13 12 13 12 12 12 13 12 13 13 16 16 21 23 21 21 22 19 18 17 17 16 15 14 13 13 13 13 12 12 13 12 12 13 13 12 12 12 11 11 10 10
10 10 9 10 12 13 11 13 13 15 16 15 13 13 14 13 14 20 20 20 20 20 18 16 16 15 14 14 14 12 12 12 12 12 12 13 12 12 12 11 11 10 10 9
10 10 9 9 10 10 14 16 16 15 16 14 12 12 10 10 11 12 17 22 21 18 18 17 17 16 15 14 14 13 12 12 12 12 12 13 12 12 11 11 10 10 9 9
9 10 10 10 9 12 13 16 15 13 12 12 11 10 10 9 9 12 16 14 17 18 18 18 18 16 13 13 13 12 11 11 11 11 12 12 12 11 11 10 10 9 9 9
11 11 9 8 6 8 13 14 15 13 12 11 11 10 9 9 8 10 12 12 13 14 17 16 16 14 12 12 12 11 10 10 10 11 12 12 11 11 10 10 9 9 9 9
8 8 8 9 9 10 12 12 13 11 12 11 11 11 10 9 9 10 11 12 14 15 13 14 12 12 12 11 11 10 9 10 11 12 12 11 11 11 10 10 9 9 9 8
7 8 8 8 8 7 11 13 10 11 11 11 12 12 11 10 10 10 11 12 11 12 11 11 10 9 10 11 11 9 10 10 12 11 11 11 11 10 10 9 9 9 8 8
7 8 9 8 8 10 11 12 11 11 11 11 11 11 11 10 10 10 10 11 11 11 11 10 10 9 10 11 12 9 9 11 11 11 11 11 10 10 9 9 9 8 8 7
7 8 8 7 9 11 12 12 11 11 10 11 11 11 11 11 10 10 10 11 11 10 10 10 10 9 8 10 11 12 11 11 11 11 10 10 9 9 9 9 8 8 8 7
8 8 9 8 10 10 11 11 10 10 10 11 11 12 13 12 11 10 10 10 11 10 10 11 10 10 9 10 12 12 11 11 11 10 10 9 9 9 9 8 8 8 7 7
8 9 8 8 10 9 10 11 10 10 10 11 11 11 12 12 11 11 10 10 10 10 10 9 10 10 9 10 11 11 11 11 10 9 9 9 8 8 8 7 7 7 7 6

GFSCGP_925_temp_009.txt.gz
Temp
20 18 17 18 18 20 20 19 20 20 21 20 19 20 22 21 17 17 17 17 17 18 19 20 19 19 19 19 18 18 18 17 16 15 14 14 14 13 13 13 13 13 12 12
18 16 19 19 18 19 19 19 19 19 20 20 20 20 21 21 17 20 19 18 18 18 18 17 18 18 18 19 18 17 17 17 16 16 15 14 14 13 13 13 13 12 12 12
16 19 20 19 19 19 19 19 19 20 21 20 21 21 19 19 20 19 19 20 20 18 18 17 16 16 16 16 17 17 17 17 16 16 15 14 13 13 12 12 12 12 12 12
17 20 20 19 19 19 19 20 20 20 20 20 20 21 22 20 20 19 20 20 19 19 19 19 17 16 15 15 16 17 17 16 16 15 15 14 14 13 13 13 13 12 12 12
19 20 20 18 20 20 19 21 19 19 18 19 19 19 22 19 20 20 21 19 20 20 19 18 18 17 16 16 15 16 16 16 16 15 15 15 14 14 14 13 12 12 12 11
19 20 21 20 22 20 22 21 20 16 16 17 20 19 23 24 22 22 22 21 20 20 19 19 19 18 17 15 14 15 15 16 16 15 14 14 14 14 13 12 12 11 11 11
18 19 19 21 20 21 21 19 16 17 15 20 19 18 23 22 21 20 22 23 22 18 17 17 16 15 15 14 13 13 14 13 15 15 14 14 14 14 13 12 12 11 11 11
17 19 19 20 20 20 18 20 19 17 17 21 17 17 23 21 21 22 21 21 22 20 15 15 16 15 15 14 13 13 12 13 13 14 14 14 14 13 13 13 12 12 11 11
17 17 20 21 21 21 20 17 21 19 21 17 21 19 20 19 19 20 19 19 19 21 14 15 14 15 14 13 13 13 13 12 13 13 14 14 13 13 13 13 12 12 11 11
16 16 20 20 21 21 20 19 18 15 18 18 20 17 20 21 22 22 20 19 18 18 15 13 13 14 14 13 13 13 13 13 14 14 14 14 13 13 13 13 12 12 12 11
14 14 17 18 18 19 19 17 17 17 16 19 19 21 21 22 23 23 21 19 18 18 16 13 13 13 13 13 13 13 12 12 12 12 13 13 13 13 13 12 12 12 11 11
14 14 14 16 18 20 19 19 16 17 17 15 19 20 23 21 20 20 19 19 18 16 16 13 12 11 12 12 13 12 12 12 12 12 12 13 13 13 12 12 12 12 11 11
13 13 12 14 15 12 11 13 13 11 11 12 14 18 19 16 14 17 18 20 19 17 15 12 11 11 12 12 12 12 12 12 12 12 12 12 13 13 12 12 12 11 11 11
14 12 12 12 13 13 13 14 14 12 10 11 11 11 13 14 14 14 15 17 20 16 15 13 11 11 12 12 12 12 11 12 11 12 12 12 13 13 13 12 12 11 11 11
11 10 11 12 12 12 12 13 13 12 11 10 12 14 15 15 14 12 12 12 12 15 19 14 13 12 12 12 12 11 11 11 11 11 11 11 13 13 13 12 11 11 11 10
10 9 10 9 11 11 11 12 12 12 13 13 13 11 12 13 12 11 11 11 12 14 15 18 15 14 12 12 12 12 11 11 11 11 11 12 13 13 12 12 11 11 11 10
9 8 8 8 10 10 10 11 12 12 13 14 13 13 11 10 11 10 9 11 12 11 13 13 15 15 14 13 13 12 11 11 11 11 11 12 12 12 12 12 11 11 10 10
8 8 8 9 9 9 11 12 12 12 14 13 13 10 10 10 10 10 11 12 11 11 11 12 12 14 15 14 13 12 11 10 11 10 10 11 11 12 12 11 11 10 10 9
8 7 8 7 8 10 11 12 11 11 12 10 7 11 12 12 10 12 13 11 10 11 11 12 13 13 15 14 13 12 10 10 10 10 10 10 11 11 11 10 10 10 9 9
9 7 7 8 8 8 11 11 11 11 10 11 12 11 11 10 9 11 12 11 10 11 11 11 12 13 14 13 12 11 10 10 10 9 10 11 12 12 11 11 10 10 9 9
7 6 6 6 6 9 10 11 10 9 9 11 11 11 11 10 10 11 11 10 11 10 11 11 11 12 13 11 11 10 9 10 10 10 11 12 12 12 11 11 10 9 9 8
6 4 6 5 4 7 10 11 10 11 11 11 10 10 10 10 11 11 11 11 10 10 10 11 9 11 10 10 11 9 9 10 10 10 11 11 12 11 10 10 9 9 8 8
6 8 8 6 8 10 11 10 10 10 10 10 10 9 10 10 10 11 11 9 9 9 10 10 8 8 9 10 10 9 7 9 9 10 10 11 10 10 10 9 9 8 8 7
6 8 7 6 8 9 10 10 10 10 9 9 10 10 10 9 10 10 11 10 10 9 10 9 9 8 8 9 9 8 8 9 9 9 10 10 10 9 9 9 8 8 7 6
8 8 8 7 8 8 9 8 8 9 9 9 9 9 9 9 9 10 11 10 9 9 9 8 8 9 8 8 8 8 9 10 9 9 9 9 9 9 8 8 8 8 7 7
8 8 7 7 9 8 9 10 9 9 9 9 9 9 9 9 10 10 11 11 9 9 9 8 9 7 9 9 8 9 11 11 10 8 8 8 8 8 8 8 7 7 7 6

GFSCGP_925_temp_015.txt.gz
Temp
17 19 19 19 18 19 19 19 19 21 21 20 22 22 22 23 20 20 21 22 22 22 23 21 20 19 18 17 17 17 17 17 17 16 15 14 15 15 15 15 15 15 14 13
18 18 19 17 17 18 18 19 19 20 20 19 20 21 22 22 23 23 22 23 23 24 23 21 19 18 18 18 17 16 16 16 17 17 15 14 13 14 15 15 14 14 14 13
18 20 17 18 18 18 18 18 19 20 20 19 19 22 23 22 22 22 21 22 23 23 23 23 20 18 17 17 16 16 16 16 17 16 14 14 13 13 13 13 13 13 13 13
17 17 19 18 18 18 18 19 20 19 19 20 21 22 24 25 25 21 21 21 22 22 22 21 21 18 17 17 17 16 16 15 15 15 14 14 14 13 12 13 13 13 13 12
20 19 19 18 19 18 20 19 18 18 18 18 20 20 26 24 24 25 26 24 21 21 22 22 21 19 18 18 17 16 15 15 14 14 14 14 14 14 13 13 13 13 12 12
18 17 19 20 19 18 19 19 18 15 17 18 21 21 24 25 24 23 24 24 23 22 21 20 20 19 18 17 16 15 14 14 13 13 13 14 13 13 14 12 12 12 12 12
16 17 18 19 19 18 19 18 18 19 17 19 19 21 24 24 25 23 23 21 18 19 19 19 18 19 18 17 15 14 14 14 13 12 12 13 13 13 15 15 13 11 11 11
15 18 19 18 18 19 18 19 19 18 19 21 20 20 23 22 20 17 17 17 17 18 18 18 18 18 17 16 15 14 14 13 12 11 12 12 13 13 13 15 14 13 12 12
15 15 17 19 18 18 18 18 18 17 19 18 20 21 22 24 19 16 17 18 17 17 17 17 17 17 17 15 15 14 13 13 12 11 12 12 12 12 13 14 15 14 13 13
14 14 16 16 17 17 16 16 16 16 16 16 19 20 20 21 15 16 17 17 17 16 16 15 16 16 16 14 13 13 13 13 12 11 12 11 11 12 13 14 14 14 13 12
12 12 15 15 15 14 15 15 15 15 16 14 15 17 14 15 15 16 17 17 16 15 14 14 15 15 15 13 12 12 12 12 12 11 11 11 10 11 12 13 14 14 13 12
12 11 11 12 14 14 14 13 13 10 11 11 9 9 15 15 16 16 15 16 16 16 15 14 15 14 14 14 12 11 12 12 12 11 11 11 10 11 11 12 14 13 13 12
11 10 10 12 12 13 12 12 12 11 10 9 9 11 15 14 14 15 14 15 15 14 14 14 13 13 13 13 13 12 11 11 11 10 10 10 10 10 11 12 13 13 12 12
12 10 10 9 10 10 9 10 10 10 8 9 10 11 12 13 13 11 11 11 13 13 14 13 13 13 12 12 12 12 11 11 11 10 10 10 10 10 10 11 12 12 12 12
9 8 9 9 10 10 10 9 10 9 10 9 10 10 11 11 8 10 11 12 12 13 13 13 13 13 12 12 13 12 11 11 11 10 10 10 10 10 10 11 11 12 11 11
8 8 9 8 9 9 9 10 10 10 11 11 11 11 11 9 10 11 11 12 11 12 13 12 13 13 13 12 12 12 12 11 10 10 10 10 9 9 9 9 10 11 11 11
7 7 7 7 9 9 8 10 11 11 11 11 10 11 10 9 11 12 11 11 11 12 12 12 13 13 12 12 11 11 11 11 10 10 10 10 9 9 9 9 10 9 10 10
7 6 7 7 7 7 11 12 11 10 11 11 11 9 10 10 10 11 12 12 11 12 12 12 12 12 12 11 11 11 11 11 11 10 10 9 9 9 9 9 9 9 9 10
7 6 6 6 7 9 10 11 11 10 9 11 9 9 10 10 10 10 12 12 11 11 11 12 12 12 11 11 11 11 10 10 11 10 10 9 9 9 8 9 9 9 8 8
6 6 7 7 6 6 11 11 11 10 8 9 9 9 9 9 8 10 11 10 10 11 11 11 11 11 11 10 10 10 10 10 11 10 10 9 9 9 8 9 8 8 9 9
7 6 5 7 7 7 9 10 10 8 9 9 9 9 9 8 9 9 10 10 10 10 10 10 10 10 10 10 9 9 9 9 10 10 10 9 9 9 9 8 8 8 8 8
6 5 5 6 5 6 9 10 8 9 9 9 9 9 8 8 9 9 9 9 9 9 9 10 10 10 10 9 8 8 8 8 10 10 10 9 9 8 8 8 7 8 7 7
6 7 7 6 7 8 10 10 9 9 9 8 8 8 8 8 8 8 8 8 9 9 9 10 10 10 9 8 7 7 8 9 10 10 9 8 8 8 7 7 7 7 7 7
6 7 6 5 8 8 9 9 9 8 8 8 8 8 8 8 8 8 8 8 8 9 9 9 9 9 8 6 7 7 6 8 9 8 8 7 8 7 7 7 7 7 6 6
7 7 6 6 7 8 7 8 7 8 8 8 8 8 7 7 7 8 8 8 8 8 8 8 9 8 7 5 6 6 6 7 8 7 7 7 7 7 7 7 7 7 7 8
7 7 6 7 7 6 6 7 7 7 7 8 7 7 7 7 7 7 7 7 7 7 7 8 8 8 6 5 5 6 6 6 7 7 7 7 7 7 6 6 6 7 9 8

GFSCGP_925_temp_018.txt.gz
Temp
23 24 26 27 26 26 25 25 25 26 28 26 25 26 27 28 28 28 28 28 30 31 32 31 30 27 25 25 25 24 23 21 20 19 18 18 17 17 17 16 16 15 15 14
24 25 24 22 23 22 24 24 25 27 27 25 26 26 27 28 28 29 28 29 30 30 30 31 30 27 26 25 24 24 23 21 21 19 18 19 18 18 17 15 15 15 14 14
24 25 21 22 23 23 24 24 25 25 26 26 26 27 31 31 28 29 29 29 29 29 29 30 29 28 25 24 24 23 23 22 20 19 18 18 18 17 16 15 14 14 14 13
23 22 22 22 23 24 24 24 23 23 23 25 25 26 29 31 29 29 30 30 29 27 26 25 24 24 25 24 23 23 23 22 21 19 18 17 17 15 15 15 14 14 14 13
25 23 23 22 23 22 24 22 23 22 23 24 25 23 29 31 29 28 28 24 23 23 23 23 23 22 22 21 22 22 22 21 21 19 17 16 17 17 17 16 15 14 13 13
22 23 22 23 22 22 22 23 23 22 22 22 26 25 27 28 27 27 25 23 22 22 22 22 21 20 20 20 19 20 20 20 20 19 17 16 17 18 18 17 15 14 14 13
22 22 22 21 22 22 23 23 24 24 23 25 24 24 27 28 25 21 21 21 21 21 20 20 20 19 19 19 19 19 19 19 19 19 17 16 17 18 18 16 15 15 14 13
20 23 21 20 20 20 21 21 22 21 24 24 24 22 26 28 27 22 21 21 20 20 20 20 19 18 18 19 19 18 18 19 18 18 17 16 16 17 18 16 16 15 14 14
19 20 21 20 20 20 21 20 19 19 20 20 22 24 26 27 24 20 20 20 19 19 19 19 19 18 18 18 18 17 17 18 17 17 17 16 16 16 17 17 16 16 15 14
17 16 19 18 19 20 19 19 17 19 17 19 22 21 21 20 18 19 19 18 18 18 18 19 18 17 17 17 17 17 16 16 17 16 17 16 16 16 16 16 16 15 15 14
16 16 18 18 18 17 16 16 16 15 17 16 15 17 19 17 18 18 18 17 16 16 16 17 17 16 16 16 16 16 16 16 16 16 16 15 15 16 16 16 16 15 14 13
14 14 14 16 17 16 16 13 14 13 13 14 13 13 17 18 18 18 17 15 15 15 16 16 17 16 16 15 15 15 16 15 15 15 15 15 15 15 15 15 15 15 14 13
13 14 12 17 15 16 15 14 14 13 12 10 11 12 17 17 17 17 16 15 15 15 15 16 16 16 16 15 15 15 15 15 14 14 15 14 15 14 15 15 15 15 14 13
13 13 13 13 13 14 12 12 13 13 11 11 12 13 15 15 15 15 15 14 15 15 15 15 15 16 15 15 15 14 14 14 14 14 14 14 14 14 14 15 15 15 14 13
12 11 12 12 12 12 12 12 12 12 12 12 13 13 14 15 15 14 14 14 14 15 15 15 15 15 15 15 15 14 14 13 13 13 13 13 13 14 13 14 15 15 14 14
11 9 10 9 11 11 11 12 12 13 13 13 14 13 16 15 14 13 14 13 13 14 14 14 14 15 14 14 14 13 13 13 13 13 13 13 13 13 13 13 14 14 14 14
10 9 8 8 11 11 11 13 14 14 14 14 12 13 14 12 12 13 13 13 13 14 13 13 13 14 13 13 13 13 13 13 12 12 12 13 13 12 13 13 13 13 13 13
9 10 8 8 10 9 13 14 14 13 13 14 13 13 12 12 12 13 14 14 13 13 13 13 14 13 13 13 13 13 13 12 12 11 12 13 12 12 12 12 13 13 13 13
11 10 8 8 10 12 13 14 13 12 12 13 13 12 12 12 12 12 14 14 13 12 13 13 12 12 12 13 13 13 12 12 11 11 11 11 12 12 12 12 12 13 13 13
11 10 9 10 8 8 12 14 13 12 10 12 11 11 11 11 8 12 13 12 12 12 12 12 12 12 12 12 13 12 12 11 11 10 10 10 11 12 11 12 12 12 13 12
11 11 8 9 8 10 13 13 12 9 11 12 11 11 10 10 10 11 12 12 12 11 11 11 11 11 11 12 12 11 11 11 11 10 10 10 11 11 11 11 11 12 12 12
9 9 9 10 8 8 13 12 10 11 12 11 10 11 10 10 11 11 11 11 11 11 11 11 11 11 11 11 11 9 9 10 9 8 9 10 11 11 11 11 11 11 11 11
9 10 10 9 10 13 13 12 12 11 9 8 8 10 10 10 10 10 11 11 11 10 10 10 10 10 10 10 8 7 8 8 8 8 9 11 11 10 11 11 11 11 11 11
11 11 9 8 10 11 12 11 11 10 9 9 9 10 10 9 10 10 10 10 10 9 10 9 9 9 10 10 6 6 7 8 8 9 10 10 10 10 11 11 11 11 11 11
10 10 9 9 10 10 10 9 8 9 9 9 10 10 9 9 9 9 10 9 9 9 8 8 8 8 9 9 6 5 6 7 8 10 8 9 10 10 10 10 11 11 11 10
10 10 9 9 10 6 6 7 9 9 9 9 9 9 9 9 9 9 9 9 8 8 8 8 8 8 8 8 6 5 5 7 7 8 7 6 9 9 9 10 10 10 10 10

GFSCGP_925_temp_021.txt.gz
Temp
27 26 28 30 28 28 28 27 28 29 30 29 28 28 29 30 31 31 31 32 32 32 33 32 32 33 32 30 29 29 28 28 26 24 24 23 22 21 20 20 20 19 17 17
27 27 26 26 25 25 26 27 27 29 30 28 28 28 29 30 31 31 31 31 31 31 31 28 27 27 26 29 28 28 28 27 27 24 23 23 22 21 20 19 19 18 17 17
26 28 25 24 25 26 27 27 27 27 27 27 28 29 31 33 33 31 29 27 27 26 26 25 25 24 24 24 24 25 26 27 26 25 23 22 22 21 20 19 18 18 17 16
26 26 24 25 25 26 26 26 25 25 25 26 28 26 29 31 31 27 26 25 24 24 24 23 23 22 22 22 21 21 22 24 25 25 23 22 21 21 20 19 17 17 17 16
27 26 24 24 25 25 24 24 24 24 25 25 26 26 31 30 29 27 24 23 23 23 23 22 22 21 21 20 20 20 20 21 23 24 24 22 20 21 20 19 17 17 16 16
25 26 24 23 24 24 24 24 26 26 25 24 28 28 29 29 27 24 24 23 23 22 21 22 21 21 20 20 19 20 20 20 20 21 23 22 20 20 20 19 18 17 16 16
25 25 24 23 23 25 24 24 24 26 24 26 28 26 28 29 24 22 22 22 22 21 21 20 20 20 20 20 19 20 19 19 19 20 21 22 20 19 20 19 18 17 16 15
23 24 23 23 22 21 22 22 22 22 25 26 25 24 28 28 25 23 23 22 22 20 19 19 19 19 19 19 19 19 19 19 19 19 20 20 21 19 18 19 19 18 16 15
21 23 23 23 21 21 23 22 20 20 22 21 24 26 28 28 23 21 20 20 20 20 18 18 18 18 18 18 18 18 18 19 18 18 19 19 20 20 18 18 20 18 17 16
20 18 21 21 21 22 21 20 19 20 19 21 24 23 23 21 19 19 19 19 20 19 18 18 18 18 17 18 17 17 17 18 18 18 18 18 19 19 18 18 19 18 17 16
18 18 20 21 20 20 20 19 19 19 18 18 18 19 23 19 18 18 18 19 19 18 17 17 18 17 17 17 17 17 17 17 17 17 16 17 18 18 18 18 18 18 17 17
16 15 16 18 20 19 18 18 17 15 15 16 15 15 19 18 18 18 18 18 18 17 17 17 17 17 17 17 17 16 16 16 16 16 16 16 17 17 17 18 18 18 17 16
15 16 15 19 17 17 17 17 17 16 14 12 12 14 18 18 18 18 18 18 17 17 17 17 17 17 17 16 16 16 16 15 15 15 15 15 16 16 16 17 18 18 18 16
13 14 14 15 16 16 15 15 15 14 13 13 14 14 16 17 17 17 17 17 16 16 16 16 17 17 16 16 16 16 16 15 14 13 14 14 15 15 16 16 17 17 17 16
14 13 15 15 15 14 14 14 14 14 14 13 14 14 16 17 17 17 16 16 15 15 16 16 16 16 15 15 15 15 15 14 14 13 13 13 14 14 15 15 16 17 17 16
14 11 12 11 13 13 13 14 14 14 14 15 15 15 17 17 17 16 15 15 15 15 15 15 15 15 15 15 15 14 14 15 14 13 12 12 12 13 14 15 15 16 17 16
12 12 11 10 13 13 12 15 15 15 15 15 14 15 16 15 15 14 14 14 14 15 15 14 15 15 14 14 14 14 14 14 13 13 12 11 12 12 13 14 14 15 16 16
12 12 12 10 11 11 15 16 16 15 15 15 15 15 15 14 14 14 14 14 14 14 14 14 15 14 14 14 13 13 14 14 14 13 13 12 12 12 12 13 14 14 15 16
13 12 11 10 11 13 14 15 14 13 13 14 14 13 13 13 13 13 14 14 13 13 14 14 13 13 13 13 13 13 13 13 13 13 12 12 12 11 10 11 13 14 15 15
14 13 11 11 9 9 13 14 15 14 11 13 11 11 11 11 9 11 13 13 13 13 13 13 13 12 12 13 13 13 13 13 13 12 11 11 11 11 10 11 12 13 14 14
13 13 11 11 10 11 14 15 13 9 11 12 12 11 11 9 10 11 12 13 13 13 12 12 12 12 12 12 12 12 12 12 11 10 11 10 10 10 10 10 11 13 14 14
11 10 11 12 11 10 15 14 11 12 12 11 11 11 10 9 10 11 12 12 12 12 12 12 12 11 11 11 11 12 12 10 10 9 9 10 10 10 10 10 9 13 13 14
11 12 12 11 11 14 14 13 14 13 12 11 10 9 9 9 10 12 11 12 12 12 11 11 11 11 10 10 10 11 11 9 8 7 9 10 10 11 10 10 8 12 13 13
13 14 12 12 12 13 13 13 13 11 10 10 10 10 10 10 10 10 11 11 11 11 11 10 10 10 10 10 9 10 9 8 7 7 9 10 11 11 10 9 9 10 13 13
11 12 11 11 12 13 13 12 11 10 10 10 10 10 10 9 9 9 10 11 10 10 10 10 10 9 9 9 9 9 8 7 5 6 8 10 10 11 9 9 8 11 13 13
11 11 11 11 12 11 11 10 9 9 9 8 8 9 10 10 9 10 10 10 9 10 9 9 9 8 8 8 8 8 7 5 4 5 6 8 7 8 10 8 8 9 12 12

GFSCGP_925_temp_024.txt.gz
Temp
27 24 25 26 25 26 26 26 25 27 29 27 26 26 27 28 27 27 27 25 24 24 24 23 22 22 22 22 22 23 22 28 28 25 25 24 23 22 21 20 20 20 19 19
26 24 26 26 26 25 25 25 25 27 28 26 25 25 26 27 26 24 23 22 22 22 22 22 22 21 21 20 20 20 21 21 22 25 25 24 24 23 21 20 20 20 19 18
25 27 26 26 25 25 26 25 25 24 25 25 25 26 27 25 24 23 22 21 21 20 20 20 21 20 20 20 19 19 20 20 20 21 23 24 23 23 22 21 20 20 19 18
25 26 25 25 25 26 23 25 24 24 23 22 25 21 24 24 23 22 21 20 20 19 20 20 19 19 19 20 20 19 19 20 20 19 19 21 22 21 21 20 20 19 19 18
25 25 24 23 24 24 23 24 23 23 22 22 24 22 26 25 22 21 21 21 20 19 18 18 18 19 19 19 19 19 19 19 19 19 19 19 20 21 21 20 19 19 18 17
24 26 25 23 24 24 24 23 23 23 22 21 24 24 25 24 21 20 20 20 20 19 17 17 18 18 18 18 19 18 18 18 19 19 19 19 19 20 20 20 19 18 17 17
24 25 24 23 22 24 22 21 20 23 21 21 24 23 25 21 21 19 19 19 18 18 17 17 17 17 17 17 17 18 18 18 18 18 19 18 19 19 20 20 19 18 16 16
22 23 23 23 22 20 20 21 20 20 21 20 22 21 23 21 19 19 18 18 18 17 16 16 16 17 17 17 17 17 17 17 17 17 18 18 18 18 19 19 19 18 16 16
20 22 23 22 21 21 21 20 19 18 20 19 20 24 22 20 18 18 17 18 17 17 16 16 16 17 17 17 17 17 17 17 16 16 17 17 16 17 18 19 19 19 18 16
19 16 21 21 21 21 20 20 18 18 17 18 21 20 20 17 16 17 17 17 17 17 16 16 16 17 16 16 17 17 17 16 16 16 16 15 16 16 16 18 18 18 18 17
18 17 19 20 20 19 18 18 18 18 17 16 15 17 19 16 16 16 17 17 17 16 15 15 16 16 16 16 16 16 15 16 16 16 15 15 14 15 15 17 18 18 18 17
16 14 14 17 19 18 17 17 18 15 15 14 12 13 17 16 16 17 17 17 16 15 15 15 16 16 16 16 15 15 15 15 16 15 14 13 13 14 14 16 16 17 18 17
14 15 13 17 17 17 17 17 17 16 13 12 11 12 17 16 16 17 16 16 15 15 15 15 15 15 15 15 14 15 15 15 15 15 14 13 13 13 13 14 15 16 17 17
13 13 14 13 14 15 14 15 15 14 11 12 12 13 15 15 15 16 15 15 14 14 14 14 14 14 14 14 14 14 14 14 14 14 14 13 12 12 12 12 14 14 16 17
13 12 14 14 14 14 13 13 14 13 13 12 12 13 14 15 15 15 15 14 14 14 14 14 13 13 14 14 14 14 14 14 13 14 14 13 12 11 11 10 11 13 15 16
14 11 12 11 13 13 13 14 14 14 14 14 14 14 15 15 15 15 13 13 13 13 13 14 13 13 13 14 13 13 13 13 13 13 13 13 13 11 11 10 9 11 13 15
12 11 11 10 13 12 11 14 15 15 15 14 12 13 14 13 12 12 12 12 13 12 12 13 13 13 13 13 13 12 13 13 13 13 13 13 12 12 11 10 9 8 9 14
12 12 11 9 10 9 14 15 15 13 14 14 13 13 11 11 11 12 12 12 12 12 12 12 12 12 12 12 12 12 12 12 12 12 12 12 12 11 11 11 8 8 8 12
12 11 9 8 10 11 13 14 13 12 12 13 12 12 12 12 11 11 12 12 11 11 12 12 12 12 12 12 12 11 11 12 11 12 12 12 11 10 10 10 9 9 7 8
14 12 10 10 8 7 13 14 14 12 9 13 12 11 11 10 7 9 10 10 10 10 11 11 11 11 11 11 11 11 11 11 11 11 11 10 10 9 9 9 10 9 8 7
12 11 9 10 9 11 13 13 13 9 9 12 11 11 10 8 8 9 10 9 10 11 11 11 11 11 11 11 11 10 10 10 10 10 10 9 8 8 8 9 9 9 8 7
10 9 9 10 9 8 14 13 10 11 12 12 10 9 8 8 9 9 9 9 9 9 9 10 10 10 10 10 10 10 9 9 9 10 9 8 8 8 8 9 10 9 8 7
10 11 9 10 9 13 13 12 12 12 11 10 9 9 9 8 8 8 8 8 9 8 8 9 10 9 9 10 10 9 9 9 9 9 8 7 7 7 8 9 9 9 8 7
12 13 10 10 11 12 12 12 13 12 10 9 9 9 8 7 7 8 8 8 8 9 8 9 9 9 9 9 8 8 8 8 8 8 7 6 6 6 8 10 10 8 7 7
11 11 10 10 11 11 12 12 10 8 8 8 8 8 8 7 7 7 7 8 8 8 8 8 8 7 7 7 7 7 6 6 7 7 6 5 5 6 7 9 8 7 7 8
10 10 9 9 11 10 10 10 9 8 8 7 7 7 7 7 7 7 6 7 6 6 6 6 6 6 6 6 6 5 5 5 6 6 5 4 4 5 6 6 8 8 7 7

GFSCGP_925_temp_027.txt.gz
Temp
23 21 20 23 24 24 23 23 21 22 24 23 22 21 23 22 20 19 18 18 17 18 19 18 18 18 18 18 18 18 18 19 19 20 20 21 21 23 23 22 22 22 21 20
21 21 23 25 25 24 23 22 20 22 23 23 21 22 20 20 19 18 17 17 17 17 17 17 17 18 18 17 18 18 18 19 19 19 19 18 19 20 22 22 22 21 21 20
22 24 25 25 23 23 22 22 21 21 21 21 22 20 20 20 19 19 17 17 16 16 16 16 17 17 17 17 18 18 18 18 18 18 18 19 19 19 20 19 21 21 20 20
22 24 24 22 22 21 20 22 21 21 19 19 20 17 20 18 18 17 16 15 14 14 15 16 16 16 17 17 17 17 18 18 18 18 18 18 18 17 18 19 19 20 20 20
21 23 23 22 22 22 20 21 20 20 18 20 20 18 18 18 17 16 16 16 15 14 14 14 15 16 17 17 17 17 17 17 17 17 17 16 16 18 18 18 18 19 20 20
20 23 23 22 22 22 21 20 19 18 17 17 20 19 19 17 17 15 15 15 15 15 14 14 16 17 17 17 16 17 17 17 17 17 17 16 16 16 16 16 17 18 19 19
19 21 22 22 20 19 18 16 15 18 17 17 20 20 16 16 15 15 15 15 15 14 13 13 13 15 16 16 16 16 17 16 16 16 16 16 16 16 15 15 15 16 17 17
17 19 21 21 20 19 17 18 15 17 16 16 19 18 16 16 15 15 16 15 15 14 14 14 15 16 15 16 16 16 16 15 16 16 16 16 15 15 14 14 14 15 15 16
14 18 19 19 20 19 18 16 17 16 16 15 16 17 17 15 14 14 15 14 14 14 14 14 14 15 15 15 15 15 15 15 15 15 15 16 15 14 14 14 14 14 15 15
16 14 17 19 20 19 19 18 15 13 14 13 14 17 16 14 13 14 15 15 14 15 14 13 13 14 15 16 16 15 14 14 14 15 15 15 14 14 14 13 13 14 14 15
14 14 14 16 17 16 15 15 15 14 13 12 11 12 13 13 14 14 15 15 14 12 12 12 13 15 15 15 14 14 14 14 14 14 14 14 14 14 14 13 13 12 13 14
13 11 11 13 16 17 16 16 15 9 12 10 6 11 13 13 15 15 15 15 13 13 12 11 13 14 14 14 14 14 14 14 14 14 14 14 13 13 13 12 12 12 12 13
12 11 8 14 14 15 14 15 14 12 8 8 7 12 15 14 14 15 15 13 12 12 11 11 12 12 13 13 13 14 14 13 13 13 13 13 13 13 13 12 12 12 11 11
12 10 10 9 12 12 11 12 12 12 4 10 11 11 13 13 14 14 11 11 11 11 11 11 10 11 12 12 13 13 13 13 12 12 12 12 12 13 13 12 11 11 10 9
10 9 11 11 12 12 11 11 12 11 11 9 11 11 13 13 11 10 10 11 11 11 12 11 11 10 12 12 12 12 12 12 12 12 12 12 12 12 12 12 11 10 10 10
11 9 10 9 11 11 11 11 11 11 11 11 12 11 12 12 9 10 10 10 11 11 12 11 11 11 11 12 11 11 11 11 11 11 11 11 12 11 11 11 11 10 10 9
10 8 7 5 10 10 8 11 12 12 13 11 10 11 10 10 10 10 11 10 10 11 10 9 10 11 11 11 11 11 11 11 11 10 10 10 11 11 11 10 10 10 9 9
9 9 6 5 7 6 11 12 12 12 12 11 11 10 10 10 11 11 11 10 10 10 10 10 10 10 10 10 10 10 10 10 10 10 10 10 10 10 9 9 9 9 9 8
9 8 5 4 4 8 10 12 12 11 10 11 10 10 11 11 10 10 10 10 9 9 9 9 9 10 10 10 10 10 10 10 9 9 9 9 9 9 9 8 8 8 7 8
9 8 7 6 4 4 9 11 12 11 9 11 10 10 9 8 7 8 9 9 9 9 9 9 9 9 9 9 9 9 9 9 9 9 9 9 9 9 8 7 7 7 7 7
8 7 7 7 4 6 10 11 11 7 9 10 10 8 8 7 7 8 9 8 9 8 8 8 8 8 8 8 8 9 9 9 9 9 8 8 8 8 8 7 7 7 7 7
7 4 4 5 4 6 11 11 9 9 10 10 8 7 7 7 7 8 8 7 7 7 8 8 8 8 8 8 8 8 8 8 8 8 7 8 7 7 7 6 6 6 7 7
7 8 6 6 6 8 10 10 10 9 7 7 6 7 7 7 7 7 7 7 7 7 7 7 7 7 7 8 7 7 7 7 7 6 6 6 6 6 6 6 6 6 7 7
9 9 7 7 9 9 10 11 9 7 7 7 7 7 7 6 6 6 6 6 6 6 6 6 6 6 6 6 6 6 6 6 6 5 5 5 5 6 6 5 5 6 7 7
7 9 8 6 8 8 9 9 7 7 7 7 7 6 5 5 5 5 5 5 5 5 5 5 5 4 5 5 5 5 5 5 4 4 4 5 5 5 5 4 4 6 7 7
7 7 4 7 7 6 6 7 7 7 6 5 5 5 4 4 4 4 4 4 4 3 3 3 3 2 2 3 4 4 5 4 5 4 4 4 4 5 4 3 4 5 7 7

GFSCGP_925_temp_030.txt.gz
Temp
22 20 20 21 22 22 22 22 20 20 23 21 22 17 17 17 16 15 14 14 14 14 15 16 16 17 16 17 17 17 18 18 18 18 17 17 18 18 19 20 19 20 21 21
20 20 22 22 24 23 22 21 20 20 21 22 20 17 17 17 16 15 14 13 14 14 13 15 16 16 16 17 17 17 17 17 17 17 17 16 17 17 18 18 19 19 20 21
20 23 23 23 22 21 21 21 21 20 19 20 20 17 17 17 16 16 14 14 14 14 13 13 15 16 16 16 16 17 17 17 16 16 17 17 16 16 17 17 17 18 18 19
21 23 22 22 22 21 20 21 21 20 18 18 20 16 16 16 15 14 13 12 13 13 13 13 14 15 16 16 16 16 16 17 16 16 16 16 15 15 15 15 15 16 17 17
21 22 22 22 21 21 20 20 20 19 17 19 18 16 16 15 14 14 14 14 14 14 13 13 14 15 16 16 16 16 16 16 16 16 16 16 16 15 15 15 15 15 15 16
19 21 21 21 21 20 20 19 17 15 15 15 17 17 15 14 15 15 14 14 14 14 14 14 15 16 15 16 16 16 15 15 15 15 15 15 15 16 15 14 14 14 14 15
17 20 21 21 20 19 17 15 15 18 16 17 18 17 15 14 14 15 15 14 13 13 13 13 13 14 15 15 16 15 15 15 15 15 15 15 15 15 15 15 14 13 13 14
15 18 18 19 19 19 17 16 15 18 16 15 16 16 14 14 14 15 15 14 13 12 12 12 14 14 14 15 15 14 14 14 14 14 14 14 14 14 14 14 14 13 13 12
14 17 17 19 19 19 18 15 16 15 14 13 14 14 14 13 14 14 13 13 12 12 13 12 13 14 14 14 14 14 14 14 14 14 14 14 13 13 13 13 13 13 13 12
15 13 16 17 19 17 18 17 15 12 15 14 13 14 13 12 13 12 13 12 12 12 13 11 12 13 13 13 13 13 14 14 14 14 14 13 13 13 13 13 13 13 13 13
13 13 15 15 15 16 14 15 14 13 11 12 10 12 12 11 13 12 13 13 13 11 10 10 11 14 14 14 14 13 13 13 14 13 13 13 13 13 13 13 13 12 13 12
12 10 10 13 14 15 16 15 12 9 12 9 6 9 12 12 13 13 13 12 11 11 10 10 11 12 12 13 13 13 13 13 13 12 12 12 12 12 12 12 12 12 12 12
12 10 9 15 13 14 13 14 12 11 7 7 7 12 13 14 14 13 10 10 10 10 10 9 10 10 11 12 12 12 12 12 12 12 11 11 11 11 11 11 12 12 12 11
12 9 10 10 13 11 10 12 11 11 4 9 10 12 13 13 12 10 9 9 8 9 9 10 10 9 10 11 11 12 12 11 11 11 10 11 11 10 10 11 11 11 11 10
10 9 9 10 10 10 11 10 10 9 10 8 11 10 12 12 10 9 9 9 9 10 10 11 10 9 10 10 11 11 11 11 11 10 10 10 10 10 10 10 10 11 10 10
9 9 9 8 10 9 9 10 10 10 10 10 11 10 11 10 9 8 8 9 10 11 11 10 10 10 10 10 10 10 10 10 10 9 9 9 10 10 10 9 10 10 10 9
9 8 6 5 8 8 8 9 10 11 11 10 9 11 10 9 9 10 10 10 10 10 10 10 10 10 10 9 9 9 9 10 9 9 9 9 9 9 9 9 9 9 9 8
8 7 5 4 6 7 12 11 11 10 11 10 10 10 9 9 10 10 9 9 9 9 9 9 9 9 9 8 8 8 9 9 9 9 9 9 8 9 8 8 8 8 8 7
8 7 4 4 3 8 10 11 11 11 10 10 10 9 10 10 8 8 9 9 8 8 8 8 8 8 8 8 8 8 8 8 8 8 8 8 8 8 8 8 7 8 7 7
7 7 6 5 3 4 10 11 11 10 8 9 9 9 7 7 5 7 8 8 7 8 7 7 7 7 7 7 7 7 7 7 7 8 8 8 8 8 7 7 7 7 6 6
7 6 7 6 2 6 8 10 10 8 7 9 8 6 6 5 6 7 7 7 7 7 6 6 6 6 6 6 7 7 7 7 7 6 7 7 7 7 7 7 6 6 6 6
7 5 4 5 3 6 9 10 9 8 8 8 6 6 6 6 6 6 6 6 5 5 5 5 5 5 5 5 6 6 6 6 6 7 6 6 6 6 6 5 5 5 5 5
7 8 6 6 6 9 9 9 9 7 6 6 5 5 5 5 5 5 4 4 4 4 4 4 4 4 4 4 5 5 4 4 5 6 6 5 5 5 4 4 5 5 5 5
8 7 6 8 8 8 9 8 8 7 7 6 5 4 4 4 4 3 3 3 3 4 4 4 3 3 2 2 2 2 2 2 3 4 5 4 4 4 4 4 5 5 4 4
8 8 7 6 8 8 8 8 7 7 6 5 4 4 3 3 3 3 4 4 4 4 3 3 3 2 2 1 1 1 1 2 2 3 4 3 4 4 4 4 4 5 4 4
8 8 6 8 7 7 6 7 7 6 5 4 3 3 3 3 3 4 4 3 3 3 2 1 1 1 1 1 1 1 1 2 2 2 3 4 4 4 3 3 4 4 4 5

GFSCGP_925_temp_033.txt.gz
Temp
20 19 20 20 20 21 22 21 20 19 21 20 15 15 15 15 13 13 12 12 12 13 14 15 16 16 16 16 16 16 16 16 16 16 17 17 17 17 17 17 17 17 18 18
19 20 21 21 22 22 21 20 19 19 20 20 15 15 16 15 15 14 13 12 13 13 12 14 15 16 16 16 16 16 16 16 16 16 16 16 16 16 16 16 16 16 16 16
20 22 22 23 20 21 20 20 20 19 18 18 15 15 15 15 15 14 13 13 13 13 13 13 14 15 16 16 16 16 16 16 15 15 16 16 15 15 15 15 15 15 15 16
20 22 22 21 21 20 19 20 20 19 18 18 18 15 14 14 15 14 13 12 13 14 13 13 14 14 15 15 16 16 16 16 15 15 15 15 15 14 15 15 15 15 15 15
21 21 21 21 21 21 19 19 18 19 17 17 17 15 14 13 14 15 14 13 13 12 12 13 14 14 15 15 15 15 15 15 15 15 15 14 14 14 14 15 15 14 14 14
19 19 20 20 20 20 18 18 16 14 14 15 16 16 13 13 13 14 14 13 12 12 12 13 14 14 15 15 15 15 15 15 15 15 15 15 14 14 13 13 13 14 14 14
16 19 19 19 19 18 16 14 15 17 15 16 16 16 14 13 13 14 15 13 12 11 10 11 12 13 14 15 15 14 14 14 14 14 14 14 14 14 13 13 13 13 13 13
15 19 17 17 18 18 17 15 14 18 16 14 14 15 14 13 13 14 14 12 11 11 10 10 12 13 13 14 14 14 13 14 14 14 14 14 13 13 12 12 13 13 13 13
15 17 16 18 18 18 17 15 15 15 13 12 13 14 13 13 12 13 11 11 11 10 10 11 12 13 13 13 13 13 13 13 13 13 13 13 13 13 12 12 12 12 12 12
14 14 16 16 17 16 17 16 15 11 15 14 12 12 13 11 11 11 10 10 10 10 10 10 11 12 12 12 13 13 13 12 12 13 13 12 12 12 12 11 10 10 11 12
13 12 15 15 15 15 14 14 12 12 11 13 11 12 12 11 11 11 10 10 10 9 9 8 10 11 12 13 13 13 13 13 12 12 12 12 12 11 11 11 11 11 11 11
12 10 11 14 14 13 14 14 12 10 12 8 5 8 12 10 10 11 10 10 10 9 9 9 10 11 12 11 11 12 12 12 12 12 12 11 11 11 11 11 11 11 11 11
11 10 10 14 13 14 13 13 11 8 6 6 8 10 10 9 10 12 10 9 8 9 9 9 9 9 10 10 10 11 11 12 11 11 11 11 10 10 10 10 10 10 10 10
11 8 11 12 14 11 11 11 10 9 4 7 9 13 14 14 11 11 11 8 8 8 8 9 9 9 9 10 9 10 9 10 9 9 10 10 10 10 10 9 10 10 10 9
9 9 9 9 9 9 9 10 10 9 8 8 12 10 12 11 11 11 8 8 8 9 10 10 10 10 10 10 9 9 9 9 9 8 9 10 10 10 10 9 9 9 9 9
8 9 8 8 9 9 8 9 9 10 10 10 10 10 12 11 8 8 8 8 10 10 10 10 9 9 9 9 9 9 8 8 8 8 8 8 8 8 9 9 9 9 9 8
8 7 6 6 7 7 9 10 10 9 9 10 9 11 10 9 8 8 9 8 9 9 8 8 8 8 8 8 8 7 7 7 7 7 7 8 8 8 8 9 8 8 8 8
6 7 5 4 6 8 13 10 10 10 10 9 10 9 9 8 9 7 7 7 7 7 7 7 7 7 7 7 6 6 7 7 7 7 7 7 8 7 7 8 8 8 8 7
7 6 4 4 3 8 11 10 9 9 9 9 9 9 8 7 6 7 7 7 7 6 6 6 6 6 5 5 5 6 6 6 6 6 7 7 7 7 7 7 7 7 7 6
6 6 6 4 3 5 11 11 11 9 8 9 8 8 7 5 5 7 7 6 6 6 5 5 4 4 4 4 4 4 4 5 5 6 6 6 6 6 6 6 6 7 6 6
6 5 6 5 2 5 8 9 10 7 8 8 8 6 5 4 4 6 6 5 5 4 4 4 3 4 4 4 3 3 3 3 4 4 5 5 6 6 6 6 6 5 5 5
6 4 4 4 3 6 8 8 9 8 7 8 7 5 4 4 5 4 4 4 3 3 3 4 4 4 4 4 3 3 2 2 2 2 3 3 4 5 5 5 5 5 4 4
8 9 5 6 7 8 8 9 9 7 7 6 5 4 4 3 3 3 3 2 3 3 3 3 3 3 3 3 2 2 2 1 1 2 2 2 3 4 4 4 4 3 3 3
7 7 6 9 9 8 7 8 8 6 6 6 5 4 3 2 2 2 2 3 3 3 3 3 3 2 2 2 2 1 1 1 1 1 2 1 2 3 3 3 3 3 4 4
8 7 8 7 8 8 7 6 7 6 6 5 4 3 2 2 2 2 2 2 3 3 3 2 2 2 2 2 2 2 2 1 1 1 1 2 2 1 2 3 3 3 3 4
6 7 9 10 10 8 7 7 6 6 5 4 3 2 2 2 2 2 2 2 2 3 2 2 1 2 2 2 2 2 2 1 1 1 2 2 2 3 3 3 2 3 4 4

GFSCGP_925_temp_039.txt.gz
Temp
18 21 21 21 20 20 20 20 20 20 19 18 16 15 15 15 14 14 15 15 15 15 14 14 14 15 16 16 16 16 16 16 16 15 15 15 16 16 15 15 15 15 15 15
20 21 20 20 20 21 20 20 20 19 18 18 15 16 15 15 15 15 15 15 15 15 15 14 14 14 15 15 15 15 15 15 15 15 15 14 15 15 15 15 15 15 14 14
20 21 20 21 20 20 19 19 19 20 17 15 15 16 15 15 15 15 15 14 14 14 15 15 14 14 14 15 14 14 14 15 14 14 15 15 15 14 14 14 15 15 14 13
20 20 21 20 20 19 19 19 19 19 18 19 16 21 14 15 15 15 15 14 14 14 14 14 14 14 14 14 14 14 14 14 14 14 13 13 12 12 13 13 13 14 13 13
20 19 19 20 20 19 20 17 18 18 17 17 16 18 18 14 14 15 15 14 14 14 13 14 13 13 14 14 13 14 14 14 14 14 13 13 13 13 13 13 13 13 13 13
18 17 19 19 18 18 17 17 15 14 15 18 17 17 20 15 15 15 15 14 14 14 14 13 12 12 13 14 14 14 14 14 14 14 13 13 13 13 12 12 11 12 12 12
18 18 17 17 19 17 17 17 20 20 19 21 16 16 20 15 14 15 15 15 14 13 13 13 13 12 12 13 14 14 13 13 13 13 13 13 13 12 12 11 11 10 11 11
18 19 17 16 17 17 16 16 19 21 20 18 14 18 20 14 14 14 14 13 12 13 13 13 12 11 11 13 13 13 13 11 12 12 12 12 12 12 11 11 12 10 10 10
16 18 16 15 16 16 16 17 15 15 13 16 16 16 16 13 13 12 13 12 12 12 12 12 11 11 12 12 12 11 11 10 10 10 10 10 10 10 10 10 10 10 10 10
13 17 14 16 15 15 16 14 16 15 19 18 17 15 18 13 13 13 13 13 12 12 12 11 11 11 11 11 10 10 10 9 9 10 9 9 9 9 9 9 9 8 8 9
12 14 16 14 15 15 15 15 12 14 14 17 16 18 15 15 14 14 13 12 12 12 11 11 11 11 10 10 10 10 10 9 9 9 9 9 9 8 9 8 8 8 8 8
11 11 15 16 13 12 13 14 14 16 15 10 11 14 13 13 13 12 13 12 11 10 11 10 10 10 10 10 9 9 9 9 8 8 8 8 8 8 8 8 8 8 7 8
12 12 16 17 14 13 13 12 10 9 9 10 14 18 12 11 11 12 12 11 11 10 10 10 10 10 9 9 9 8 8 7 7 7 7 7 7 7 7 7 7 7 7 7
11 10 14 16 15 12 13 11 10 12 11 12 14 18 18 13 12 12 12 11 10 9 9 9 9 10 9 8 8 7 7 6 6 6 6 6 6 6 6 6 6 7 7 7
10 12 9 9 10 10 11 12 10 11 12 14 17 13 15 14 13 12 11 10 9 10 10 10 9 9 8 7 6 6 5 5 4 4 4 4 5 5 5 6 6 6 6 6
7 11 8 10 8 9 9 10 10 11 11 10 12 12 14 13 11 10 10 9 9 9 9 9 8 7 6 6 5 4 4 4 4 4 4 4 4 4 4 5 5 6 6 6
8 8 8 10 7 8 11 11 12 10 9 12 12 14 11 10 10 10 9 9 8 8 8 7 7 6 5 4 4 3 3 4 4 4 4 4 4 4 4 4 4 5 5 6
7 8 7 8 9 12 16 11 11 11 10 10 10 11 10 10 9 8 8 8 8 7 7 6 5 4 4 3 3 3 3 3 4 3 3 3 3 3 3 3 3 4 5 5
7 8 8 8 7 10 14 10 10 10 12 11 11 11 10 8 7 8 8 7 6 6 5 4 4 3 3 3 3 3 3 3 3 2 2 2 2 2 2 1 2 2 4 4
6 6 9 5 6 9 13 10 10 10 12 11 10 9 9 7 10 11 8 6 5 4 4 3 3 3 3 3 3 3 3 3 2 2 2 2 2 2 1 1 1 1 2 3
6 7 7 7 6 8 9 10 9 11 14 9 8 9 8 8 9 8 6 5 4 3 3 2 2 3 3 3 3 3 3 2 2 2 2 2 2 2 1 1 1 1 1 3
7 6 6 6 6 8 8 8 11 12 8 8 8 8 7 6 6 5 4 4 3 2 2 2 2 3 3 2 2 3 2 2 2 2 2 2 2 2 1 1 1 1 2 2
8 9 8 7 8 9 8 10 9 7 9 8 7 7 6 5 4 4 3 3 2 2 2 2 2 2 2 2 2 2 2 2 2 2 1 2 2 1 0 2 2 1 2 2
7 7 8 7 9 9 10 10 8 7 7 7 6 6 5 4 3 3 2 2 2 2 2 2 2 2 2 2 2 2 2 2 2 2 2 2 2 1 1 2 2 2 2 2
8 6 8 7 9 10 9 9 9 7 6 5 5 5 4 3 3 2 2 2 2 1 2 2 2 2 2 2 2 2 2 1 1 1 2 2 1 1 1 2 2 2 3 2
5 10 9 13 12 10 10 9 7 6 6 5 4 3 3 2 2 2 2 1 1 2 1 1 1 1 1 1 1 2 1 1 1 1 2 2 2 2 2 2 2 2 2 3

GFSCGP_925_temp_042.txt.gz
Temp
24 27 28 27 25 25 26 25 25 25 22 23 22 22 20 19 19 19 20 20 20 20 19 18 18 18 18 18 18 17 17 17 17 17 17 17 17 17 17 16 16 16 15 15
26 27 24 24 24 24 25 25 26 23 21 23 23 22 21 19 19 20 20 20 20 20 20 19 18 18 17 17 17 17 17 16 16 15 15 15 16 16 15 15 15 15 15 15
26 25 23 24 24 24 24 25 25 24 22 21 21 23 20 19 19 19 20 20 20 19 20 20 19 18 17 17 16 16 16 16 16 15 15 15 15 15 15 15 15 15 14 15
24 23 23 23 24 24 24 22 22 22 23 25 22 26 21 21 19 19 19 19 20 19 19 19 19 18 18 17 16 15 15 15 15 15 15 14 14 15 15 14 14 14 14 14
24 23 23 23 23 22 23 21 21 21 22 22 22 22 26 20 19 20 20 20 19 19 19 19 18 17 17 16 15 15 15 15 15 15 14 14 14 14 14 14 14 14 14 14
22 21 22 22 21 21 20 21 20 20 21 23 24 23 28 21 22 21 20 19 19 19 19 18 18 17 17 16 15 15 15 15 14 14 14 14 13 13 14 14 14 14 14 14
22 22 21 20 22 21 22 22 25 25 23 26 21 21 26 23 21 22 20 19 19 18 18 18 18 17 16 15 15 15 15 14 14 14 13 13 13 13 13 13 13 13 13 13
24 23 21 20 21 22 21 22 25 25 26 26 19 22 26 20 20 21 20 19 18 18 18 17 17 16 15 15 15 14 14 13 13 13 13 13 13 12 12 12 12 12 12 12
23 22 19 18 19 20 21 22 19 22 19 21 25 23 22 18 18 18 18 18 17 17 17 17 16 15 15 15 14 14 13 13 13 12 12 12 12 12 11 11 11 11 11 11
19 22 18 18 18 18 20 19 21 22 23 23 25 23 25 19 19 18 18 18 18 16 16 17 16 15 15 14 13 13 13 12 12 12 11 11 11 11 11 11 11 10 10 10
17 19 19 18 19 21 19 20 19 19 21 23 24 25 24 22 22 20 20 19 18 17 16 16 15 15 14 13 13 12 12 11 11 10 10 10 10 10 10 10 10 10 10 10
16 18 21 21 17 16 18 20 21 21 22 20 18 21 20 20 19 19 20 20 18 16 15 15 15 14 14 13 13 12 11 10 10 9 9 9 9 9 9 9 9 9 9 9
16 19 22 21 17 16 17 18 18 17 17 19 20 23 19 18 18 18 18 18 17 16 16 15 14 14 13 12 12 11 10 9 9 8 7 7 7 7 7 7 8 8 8 9
14 17 20 22 20 18 18 16 16 18 18 21 20 22 23 21 20 19 18 17 17 16 15 14 14 13 12 11 10 10 9 8 7 7 7 6 6 6 6 6 6 7 7 8
15 17 16 18 16 15 16 17 16 16 19 19 21 21 22 22 20 19 18 16 15 15 14 14 13 12 11 10 9 8 7 7 7 6 6 7 6 6 6 5 6 6 6 7
13 16 14 16 13 13 14 16 16 16 16 17 18 17 19 19 17 17 16 15 14 14 13 12 12 10 10 9 8 7 6 6 6 6 6 5 5 4 5 4 5 5 5 5
14 15 14 17 13 14 17 18 18 18 16 17 17 20 18 17 16 16 15 14 13 13 12 11 10 9 8 7 6 6 6 5 5 4 5 4 4 4 4 3 3 4 4 4
13 14 14 14 15 17 18 17 16 16 17 16 16 16 17 17 15 14 14 13 13 12 11 10 9 8 7 6 6 5 4 4 4 4 4 4 4 4 3 2 2 2 3 3
12 14 14 13 15 18 19 16 15 14 17 18 16 16 17 15 13 15 13 12 11 10 9 8 7 6 6 5 5 4 3 4 4 4 4 4 3 3 2 2 2 2 2 2
11 12 14 12 12 15 19 13 13 13 16 17 16 16 16 13 15 16 12 11 10 9 7 6 5 5 5 5 4 4 4 3 4 4 3 3 3 2 2 2 2 1 1 2
12 12 12 13 11 14 16 14 13 15 17 16 15 15 14 13 15 13 11 10 8 7 6 5 5 5 4 3 4 3 4 3 3 3 3 3 2 2 2 2 2 1 2 1
13 13 12 12 11 12 14 12 14 18 15 14 14 14 13 12 12 10 9 8 7 6 5 5 4 4 3 3 3 3 3 3 3 3 2 2 2 2 2 2 1 1 3 3
13 16 16 14 14 15 14 16 16 13 13 14 13 13 12 11 10 9 8 7 6 5 5 4 4 4 4 4 3 3 3 2 2 2 2 2 2 2 2 2 1 2 3 3
13 13 12 13 16 16 16 16 15 14 14 13 13 12 11 10 9 8 7 7 6 5 4 4 4 4 4 4 3 3 2 2 1 1 2 1 2 2 2 2 2 2 3 2
13 12 15 16 16 15 15 16 15 14 13 11 11 10 9 8 8 7 6 6 5 4 4 4 4 4 3 2 2 3 2 1 1 1 1 2 2 2 2 2 2 2 2 3
13 14 14 15 17 16 15 15 14 12 12 12 11 9 8 7 7 6 6 5 4 4 4 4 3 3 2 2 2 2 1 1 1 1 1 1 2 2 2 2 3 2 2 3

GFSCGP_925_temp_048.txt.gz
Temp
27 26 25 28 29 28 27 27 27 28 26 25 24 24 26 22 21 21 21 22 21 21 21 21 21 20 20 20 20 20 19 18 18 17 17 16 16 16 16 16 16 16 16 16
27 25 27 28 27 27 27 27 27 28 26 25 24 24 25 22 21 21 21 21 21 21 19 21 21 20 20 20 20 19 18 18 18 17 17 16 16 16 16 16 16 16 16 16
26 27 27 27 27 26 27 26 26 25 26 25 24 23 24 24 22 21 22 21 22 21 20 19 21 21 20 20 20 19 18 18 18 17 17 16 16 15 15 15 15 15 15 15
27 26 26 26 26 27 25 25 25 25 24 23 25 21 26 23 21 21 20 20 20 21 21 22 22 21 21 20 19 19 18 17 17 17 16 16 15 15 15 15 15 14 15 15
26 26 25 25 26 26 24 24 24 24 22 22 23 22 25 22 21 20 20 20 20 20 20 20 21 21 20 19 19 18 17 17 17 16 16 15 15 15 14 14 14 14 14 14
25 25 25 24 24 24 24 23 23 23 22 20 23 23 23 22 23 22 21 20 20 20 20 20 21 20 19 19 18 17 16 16 16 16 15 15 15 15 14 14 14 13 13 13
26 25 24 23 23 23 23 22 22 21 20 22 25 24 25 24 24 24 22 20 20 19 19 19 19 19 19 18 17 17 17 16 16 15 15 15 14 14 14 13 13 13 12 12
25 23 23 23 23 22 23 23 21 22 23 24 24 22 24 23 23 24 24 21 20 19 18 18 19 19 18 18 17 17 17 16 15 15 15 14 14 13 13 12 12 11 11 11
24 22 22 22 22 22 23 21 22 22 23 22 24 25 23 23 22 22 22 20 19 19 18 18 19 19 18 18 17 17 16 16 15 15 14 13 13 12 11 11 11 11 11 10
22 22 23 20 21 21 21 21 21 20 22 22 25 24 21 21 21 22 21 20 19 19 19 18 18 19 18 18 17 16 16 15 15 14 13 12 11 11 10 10 10 9 9 9
21 22 21 21 20 22 20 21 21 21 20 21 20 22 25 23 22 20 20 20 19 18 17 17 18 18 18 17 17 16 15 14 14 13 12 11 11 10 9 9 9 9 9 9
18 19 20 22 20 20 20 21 22 20 21 20 17 18 21 21 21 21 20 20 19 19 19 17 18 18 18 17 16 15 14 13 13 12 11 10 10 9 9 9 8 9 8 7
17 19 19 19 19 20 20 22 21 20 18 16 16 18 21 21 21 21 20 20 19 19 18 17 17 16 16 16 15 14 13 12 11 10 10 9 9 8 8 8 7 7 6 5
15 19 20 19 20 20 20 21 21 20 15 18 18 21 22 21 20 18 18 17 16 17 18 16 15 15 15 14 13 13 12 11 10 9 9 8 7 7 7 6 5 5 5 5
17 18 19 19 20 20 20 19 19 19 19 17 19 19 20 19 18 18 19 19 19 17 17 16 14 13 14 13 12 11 10 9 9 8 8 7 7 5 5 5 5 5 5 4
17 17 18 17 20 18 18 18 18 18 19 19 19 18 19 20 18 18 18 17 16 16 16 14 13 13 12 12 11 10 9 9 8 7 7 6 5 5 4 4 4 5 4 4
17 16 16 16 19 18 17 19 20 19 20 19 17 18 19 17 17 17 16 15 16 15 14 12 12 12 11 10 9 9 8 8 7 6 5 5 5 5 4 4 4 4 4 3
17 16 15 13 15 15 20 19 19 19 18 18 18 18 18 18 17 16 15 15 15 13 12 11 11 10 10 9 8 8 7 6 6 5 4 4 4 4 4 3 3 3 3 3
15 15 14 12 13 17 19 17 17 16 16 17 16 16 17 16 15 15 14 14 13 13 12 11 10 9 9 8 8 7 6 6 5 5 4 4 4 3 3 3 3 2 2 2
15 14 13 14 12 12 17 16 17 16 13 16 16 15 15 14 11 13 14 14 13 12 11 10 9 8 8 8 7 7 6 5 5 4 4 4 3 3 2 2 2 2 2 2
13 12 11 12 12 14 17 15 16 15 13 14 15 14 13 12 12 13 13 13 12 11 10 9 9 8 8 7 7 6 6 5 4 4 3 3 2 2 2 2 2 2 2 2
14 13 12 13 12 12 16 15 15 15 14 15 14 13 12 12 12 13 12 12 11 10 9 9 8 7 7 7 6 6 4 4 4 3 3 2 2 2 2 2 2 2 2 2
14 16 13 14 13 16 16 15 15 14 13 13 12 12 12 12 12 12 11 11 10 10 9 8 7 7 7 6 6 4 4 3 3 3 2 2 2 2 2 2 2 2 2 2
17 17 12 14 16 16 16 15 15 14 13 13 13 12 12 11 11 11 10 9 9 9 8 7 7 6 6 5 4 3 3 3 3 2 2 2 2 2 2 1 2 2 2 2
15 15 15 14 14 15 14 13 13 13 13 13 13 12 11 11 11 10 9 9 9 8 7 6 6 5 5 4 4 3 3 3 2 2 2 2 2 1 1 1 1 2 2 4
13 14 13 12 13 12 12 12 13 12 12 11 11 11 11 11 10 10 8 8 8 7 6 6 5 4 4 4 4 4 3 2 2 2 2 1 1 1 1 1 1 2 4 4

GFSCGP_925_temp_051.txt.gz
Temp
25 22 22 23 23 25 26 25 24 24 25 24 21 21 21 19 19 18 17 16 16 17 18 20 20 20 20 20 20 19 18 18 17 17 17 16 16 16 16 15 15 15 15 15
23 22 25 26 26 25 25 24 23 24 24 23 22 21 21 20 20 19 18 16 16 16 16 18 20 20 20 20 19 19 18 18 17 17 17 16 16 16 15 15 15 15 14 14
23 25 26 26 25 25 25 24 23 24 23 23 22 20 21 20 19 19 18 18 17 16 16 15 18 20 20 20 19 19 18 18 17 17 16 16 16 15 15 15 14 14 14 14
25 25 25 25 25 24 23 23 23 23 21 20 23 18 19 19 18 18 18 17 17 16 16 16 17 18 19 19 19 18 17 17 17 16 16 16 15 14 15 14 14 14 14 13
23 24 24 24 24 24 23 23 22 22 20 19 19 19 18 18 18 17 17 17 17 16 17 16 18 19 19 19 19 18 17 17 16 16 16 15 15 15 14 14 13 13 13 13
22 24 24 23 23 23 22 22 21 21 18 17 18 19 19 19 19 18 17 17 17 16 17 18 19 19 19 19 18 17 17 17 16 16 15 15 15 14 14 13 12 12 12 11
22 22 22 23 22 22 22 18 17 18 17 18 21 20 20 22 21 20 18 16 16 16 16 15 16 18 18 18 17 17 17 16 16 16 15 15 14 13 13 12 11 11 11 10
20 20 21 22 22 21 20 18 17 20 18 19 21 20 20 20 19 19 18 17 16 16 15 15 16 17 18 18 17 17 17 16 16 15 15 14 13 12 12 11 11 10 10 9
19 19 21 20 20 21 21 19 20 19 19 18 19 20 20 20 20 19 17 16 16 15 15 15 17 18 18 18 18 17 16 16 15 14 14 13 12 11 11 10 10 9 9 9
19 20 21 20 20 20 20 19 18 16 19 20 19 21 20 20 19 20 17 16 17 16 15 15 16 17 18 17 17 17 16 15 14 13 13 12 11 10 10 9 9 9 8 8
19 18 20 19 18 18 18 18 19 16 15 16 16 17 20 19 19 18 18 17 16 15 15 14 16 17 17 17 16 15 14 14 13 12 11 10 10 9 9 9 8 8 7 6
17 15 17 19 19 19 19 20 17 15 18 15 11 15 19 17 17 17 18 17 17 17 16 14 15 16 16 15 14 14 13 12 11 10 10 9 9 8 7 7 6 6 5 5
15 15 15 18 18 19 19 20 20 16 12 15 12 16 18 18 19 19 19 17 14 16 16 14 14 14 14 13 13 13 12 11 10 9 9 9 8 7 7 6 5 5 4 4
14 15 15 15 18 17 19 20 20 17 9 14 14 16 17 17 17 17 17 17 16 16 16 14 12 12 13 12 12 11 10 10 9 9 8 7 7 6 5 4 4 4 4 4
14 15 17 17 16 18 18 17 17 16 15 15 17 17 16 17 18 18 18 15 16 15 15 14 12 10 11 11 11 10 9 9 8 7 6 6 5 5 4 4 4 4 4 4
14 14 15 15 17 18 17 16 16 16 16 15 15 15 17 17 16 14 13 14 14 14 14 12 11 10 10 9 9 9 8 8 6 6 5 5 5 4 4 4 4 4 4 3
13 13 11 12 14 14 14 17 18 18 17 17 16 16 16 15 14 15 13 13 12 13 11 10 9 9 9 9 8 8 8 7 6 6 5 5 4 4 4 4 3 3 3 3
13 13 11 8 12 12 16 16 16 17 15 14 14 14 14 14 14 13 12 12 12 12 11 9 8 8 8 8 8 7 7 6 6 5 5 4 3 3 3 3 3 3 3 2
12 11 10 9 8 12 17 15 15 16 15 14 13 13 13 12 12 12 14 13 12 12 9 9 9 8 8 8 7 7 6 6 5 4 3 3 3 3 3 3 2 2 2 2
12 10 9 9 8 9 15 15 16 15 10 14 14 13 12 11 10 9 12 11 11 10 10 9 9 8 8 7 7 6 6 4 4 3 3 3 3 3 3 2 2 2 2 2
9 8 8 6 6 9 13 15 15 13 11 12 13 12 12 11 9 10 10 10 11 10 9 9 8 7 7 7 6 5 4 3 3 3 3 3 3 3 2 2 2 2 2 2
10 7 8 7 7 10 14 14 15 12 12 13 12 12 11 10 9 10 10 10 10 9 8 8 7 7 6 6 5 4 3 3 3 2 3 3 2 2 2 2 2 2 2 2
12 12 10 10 10 12 14 12 14 12 12 12 11 10 9 9 9 9 9 10 8 8 7 7 6 6 6 5 4 3 3 3 3 2 2 2 2 2 2 2 1 1 1 2
14 13 9 11 14 14 12 12 12 12 11 10 10 10 10 9 8 8 8 7 7 7 7 6 6 5 4 4 4 4 3 3 2 2 2 2 2 2 1 1 1 1 1 2
11 12 12 10 12 12 11 11 10 10 9 9 9 10 9 8 8 8 8 7 7 6 6 6 5 4 4 4 3 3 2 2 2 1 2 2 1 1 1 1 1 1 2 4
11 11 9 9 10 9 9 10 11 10 9 9 9 8 9 9 7 9 6 6 6 6 6 5 4 4 4 3 3 3 2 2 1 1 1 1 1 1 1 1 1 2 4 4

GFSCGP_925_temp_054.txt.gz
Temp
24 22 22 23 22 23 24 24 24 23 24 22 20 19 19 18 17 16 14 14 14 15 17 19 20 20 20 19 18 18 18 18 17 17 17 16 16 16 16 15 15 14 14 14
22 22 23 24 24 25 24 24 22 23 24 23 22 21 21 18 18 18 16 15 15 15 14 17 19 20 20 19 18 18 18 18 17 17 16 16 16 16 15 15 15 14 14 14
22 25 25 25 25 24 23 23 22 22 22 22 21 19 20 20 19 17 17 16 15 15 15 14 17 19 19 19 19 18 18 17 17 16 16 16 16 16 15 15 14 14 13 13
23 24 25 24 24 23 23 22 23 22 20 20 20 18 18 19 18 17 16 15 15 14 15 15 16 17 19 19 18 18 17 17 17 16 16 16 15 14 14 14 13 13 13 12
23 23 23 23 23 23 22 22 22 21 19 19 18 18 18 18 18 16 16 15 14 14 14 14 15 18 19 19 19 18 17 17 17 16 16 15 15 14 14 13 13 12 12 11
22 23 23 23 22 22 21 21 17 16 16 16 18 18 18 18 19 17 16 15 15 14 14 15 17 18 18 18 17 17 17 17 17 16 16 15 14 14 13 13 12 11 11 10
21 22 21 22 22 21 19 17 17 18 16 17 19 18 18 18 19 19 17 15 15 14 14 14 14 16 17 17 17 17 17 17 16 16 15 14 14 13 12 11 11 10 10 9
19 20 21 21 21 20 19 17 16 20 17 18 18 19 20 20 18 16 17 16 15 14 14 13 14 16 17 17 17 17 17 16 16 15 14 13 13 12 11 10 10 9 9 9
18 20 20 20 20 20 20 18 18 18 16 16 17 20 19 20 18 16 15 16 15 14 13 13 15 16 17 17 17 17 16 15 14 13 13 12 11 10 10 9 9 8 8 7
18 19 19 19 20 19 20 18 18 15 19 19 17 19 18 20 19 18 17 16 16 15 14 13 14 16 17 16 16 15 14 13 13 12 11 10 10 9 9 8 8 7 7 7
18 17 19 19 18 17 17 17 17 15 14 16 16 17 18 19 18 18 18 16 15 14 13 12 13 15 15 15 14 14 13 12 11 10 10 9 9 8 8 7 7 7 6 5
15 14 16 18 18 18 18 18 16 14 17 13 10 14 17 17 16 17 17 16 15 15 15 14 14 14 14 13 13 12 11 11 10 9 9 8 8 7 7 6 5 5 5 4
16 15 15 17 17 18 19 19 17 13 10 14 12 15 16 16 18 15 17 15 14 16 15 13 13 12 12 11 11 11 10 9 9 9 8 8 7 6 6 5 5 4 4 4
14 13 15 15 18 17 17 19 18 15 9 13 13 16 17 16 17 17 16 15 14 14 14 13 11 10 10 10 10 9 9 8 8 7 7 6 6 5 5 4 4 3 3 3
13 15 15 16 15 16 16 16 16 15 15 14 16 15 15 14 16 15 14 14 13 13 13 11 9 9 9 9 9 9 9 8 7 7 6 6 5 5 4 3 3 3 3 4
12 14 14 15 15 14 16 15 14 14 15 14 14 14 15 13 13 13 12 12 12 10 10 10 10 9 8 8 8 8 8 7 7 6 6 5 5 4 3 3 3 3 3 3
13 12 11 13 12 13 14 17 16 17 16 16 15 14 13 12 13 13 12 12 12 11 11 10 9 8 8 8 8 7 7 7 6 6 5 4 3 3 2 3 3 3 3 3
12 12 10 8 11 12 15 15 15 13 13 13 13 13 13 13 12 11 11 13 11 10 10 8 8 8 8 8 7 7 6 6 5 4 4 3 2 2 2 3 3 3 3 2
10 10 8 8 7 11 15 15 15 15 14 13 14 13 12 11 11 12 13 12 10 9 9 8 8 8 8 7 7 6 6 5 4 3 2 2 2 2 3 3 2 2 2 2
9 8 9 8 7 9 14 15 15 13 10 13 13 12 11 10 9 9 10 10 9 10 9 8 8 7 7 6 6 5 4 3 3 2 2 2 2 2 2 2 2 2 2 2
9 7 8 6 5 8 11 13 13 13 11 12 13 12 11 10 8 9 9 9 10 10 9 8 7 7 6 6 5 4 3 3 3 3 2 2 2 2 2 2 2 2 2 1
10 6 6 6 6 10 12 13 13 11 11 12 11 11 10 9 8 8 8 8 9 8 8 7 6 6 5 5 4 3 3 3 2 2 1 1 2 2 2 2 1 1 1 1
11 11 9 9 9 11 12 12 12 10 11 11 10 9 8 8 8 7 7 7 8 8 7 6 6 5 5 4 4 3 3 2 2 1 1 1 2 2 2 1 1 1 1 1
13 11 9 10 12 12 12 11 11 11 11 9 9 8 8 7 7 6 6 6 6 6 6 5 5 4 4 4 3 3 2 2 1 1 1 2 2 2 1 1 1 1 1 2
11 12 11 9 11 10 10 10 10 9 9 8 8 8 7 7 6 6 6 6 6 6 5 5 4 4 3 3 3 3 2 2 1 1 2 2 1 1 1 1 1 1 2 4
9 10 9 9 9 9 9 10 10 9 8 8 7 7 7 7 6 7 5 6 5 5 5 4 4 3 3 3 3 2 2 1 1 1 1 1 1 1 1 1 1 1 3 3